Stony Rapids, Saskatchewan

10:51 AM CST on January 24, 2017 (GMT -0600)
Stony Rapids

Weather History for CYSF - December, 2013

Change the Weather History Date:

Friday, December 13, 2013

  Actual Average Record
Temperature  
Mean Temperature -39 °F -  
Max Temperature -32 °F 2 °F 28 °F (2011)
Min Temperature -46 °F -12 °F -46 °F (2013)
Degree Days  
Heating Degree Days 104    
Moisture  
Dew Point -50 °F    
Average Humidity 61    
Maximum Humidity 68    
Minimum Humidity 39    
Precipitation  
Precipitation 0.00 in - - ()
Sea Level Pressure  
Sea Level Pressure 30.66 in    
Wind  
Wind Speed 2 mph ()    
Max Wind Speed 5 mph    
Max Gust Speed -    
Visibility 4.2 miles    
Events Snow    
Averages and records for this station are not official NWS values.
T = Trace of Precipitation, MM = Missing Value Source: Averaged Metar Reports

Daily Weather History Graph

Daily Weather History Graph

Search for Another Location

Airport or City:

Trip Planner

Search our weather history database for the weather conditions in past years. The results will help you decide how hot, cold, wet, or windy it might be!

Date:

Astronomy

Dec. 13, 2013 Rise Set
Actual Time 9:51 AM CST 4:03 PM CST
Civil Twilight 8:56 AM CST 4:58 PM CST
Nautical Twilight 8:02 AM CST 5:53 PM CST
Astronomical Twilight 7:11 AM CST 6:43 PM CST
Moon 2:26 PM CST (12/13) 5:34 AM CST (12/13)
Length of Visible Light 8h 01m
Length of Day
6h 11m
Waxing Gibbous, 88% of the Moon is Illuminated
Dec 13
Waxing Gibbous
Dec 17
Full
Dec 25
Last Quarter
Jan 1
New
Jan 7
First Quarter

Hourly Weather History & Observations

Time (CST) Temp. Windchill Dew Point Humidity Pressure Visibility Wind Dir Wind Speed Gust Speed Precip Events Conditions
12:00 AM -44 °F - -53 °F 40% 30.65 in 1 mi SE 2.3 mph - -   Light Haze
12:00 AM -43.6 °F - -52.6 °F 60% 30.65 in 0.6 mi Variable 2.3 mph - N/A   Haze
12:04 AM -43.6 °F - -52.6 °F 60% 30.65 in 0.6 mi Variable 2.3 mph - N/A   Haze
12:19 AM -43.6 °F - -52.6 °F 60% 30.65 in 1.5 mi Variable 2.3 mph - N/A   Haze
12:22 AM -43.6 °F - -52.6 °F 60% 30.65 in 2.5 mi Variable 2.3 mph - N/A   Haze
12:32 AM -45.4 °F - -54.4 °F 60% 30.65 in 2.2 mi Calm Calm - N/A   Haze
12:34 AM -45.4 °F - -54.4 °F 60% 30.65 in 2.5 mi Variable 2.3 mph - N/A   Haze
12:36 AM -45.4 °F - -54.4 °F 60% 30.65 in 2.0 mi Variable 2.3 mph - N/A   Haze
12:42 AM -45.4 °F - -54.4 °F 60% 30.65 in 1.8 mi Variable 2.3 mph - N/A   Haze
12:44 AM -45.4 °F - -54.4 °F 60% 30.65 in 1.2 mi ESE 2.3 mph - N/A   Haze
12:47 AM -45.4 °F - -56.2 °F 54% 30.65 in 1.2 mi SE 2.3 mph - N/A   Haze
12:56 AM -45.4 °F -59.7 °F -54.4 °F 60% 30.65 in 1.5 mi East 3.5 mph - N/A   Haze
1:00 AM -45.4 °F -62.9 °F -54.4 °F 60% 30.65 in 2.0 mi East 4.6 mph - N/A   Haze
1:01 AM -45.4 °F -62.9 °F -54.4 °F 60% 30.65 in 2.0 mi ENE 4.6 mph - N/A   Haze
1:06 AM -45.4 °F -59.7 °F -54.4 °F 60% 30.65 in 1.0 mi NE 3.5 mph - N/A   Haze
2:00 AM -45.4 °F - -54.4 °F 60% 30.66 in 0.8 mi Calm Calm - N/A   Haze
2:15 AM -47.2 °F - -56.2 °F 59% 30.66 in 1.0 mi Calm Calm - N/A   Haze
2:31 AM -47.2 °F - -56.2 °F 59% 30.66 in 1.0 mi Calm Calm - N/A   Haze
3:00 AM -45.4 °F - -54.4 °F 60% 30.67 in 0.1 mi Calm Calm - N/A   Haze
4:00 AM -45.4 °F - -54.4 °F 60% 30.67 in 0.2 mi Variable 2.3 mph - N/A   Haze
4:55 AM -45.4 °F -59.7 °F -54.4 °F 60% 30.66 in 1.5 mi ESE 3.5 mph - N/A   Haze
5:00 AM -45.4 °F - -54.4 °F 60% 30.67 in 1.8 mi ESE 2.3 mph - N/A   Haze
5:01 AM -45.4 °F - -54.4 °F 60% 30.67 in 1.8 mi ESE 2.3 mph - N/A   Haze
5:05 AM -45.4 °F - -54.4 °F 60% 30.67 in 2.5 mi ESE 2.3 mph - N/A   Haze
5:07 AM -45.4 °F - -54.4 °F 60% 30.67 in 3.0 mi SE 2.3 mph - N/A   Haze
5:13 AM -45.4 °F - -54.4 °F 60% 30.67 in 6.0 mi ESE 2.3 mph - N/A   Haze
6:00 AM -45 °F - -54 °F 39% 30.67 in 5 mi East 2.3 mph - -   Light Haze
6:00 AM -45.4 °F - -54.4 °F 60% 30.67 in 5.0 mi East 2.3 mph - N/A   Haze
6:05 AM -45.4 °F - -54.4 °F 60% 30.67 in 2.5 mi ESE 2.3 mph - N/A   Haze
6:11 AM -45.4 °F - -54.4 °F 60% 30.66 in 3.0 mi ESE 2.3 mph - N/A   Haze
6:17 AM -45.4 °F - -54.4 °F 60% 30.66 in 2.2 mi East 2.3 mph - N/A   Haze
6:31 AM -45.4 °F -59.7 °F -54.4 °F 60% 30.66 in 2.5 mi ESE 3.5 mph - N/A   Haze
6:33 AM -45.4 °F -59.7 °F -54.4 °F 60% 30.66 in 3.0 mi ESE 3.5 mph - N/A   Haze
6:51 AM -45.4 °F -59.7 °F -54.4 °F 60% 30.66 in 6.0 mi ESE 3.5 mph - N/A   Haze
7:00 AM -43.6 °F -57.7 °F -52.6 °F 60% 30.67 in 9.0 mi ESE 3.5 mph - N/A   Partly Cloudy
7:09 AM -45.4 °F -59.7 °F -54.4 °F 60% 30.67 in 4.0 mi ESE 3.5 mph - N/A   Haze
7:25 AM -43.6 °F - -52.6 °F 60% 30.67 in 6.0 mi Calm Calm - N/A   Haze
7:27 AM -43.6 °F - -52.6 °F 60% 30.67 in 5.0 mi Calm Calm - N/A   Haze
7:31 AM -43.6 °F - -52.6 °F 60% 30.67 in 2.5 mi Calm Calm - N/A   Haze
7:38 AM -43.6 °F - -52.6 °F 60% 30.67 in 3.0 mi Variable 2.3 mph - N/A   Haze
8:00 AM -43.6 °F - -52.6 °F 60% 30.68 in 5.0 mi Calm Calm - N/A   Haze
8:01 AM -43.6 °F - -52.6 °F 60% 30.68 in 6.0 mi Calm Calm - N/A   Haze
8:10 AM -43.6 °F - -52.6 °F 60% 30.68 in 5.0 mi Variable 2.3 mph - N/A   Haze
8:16 AM -43.6 °F -57.7 °F -52.6 °F 60% 30.67 in 2.5 mi ENE 3.5 mph - N/A   Haze
8:17 AM -43.6 °F -57.7 °F -52.6 °F 60% 30.67 in 2.0 mi ENE 3.5 mph - N/A   Haze
8:19 AM -43.6 °F -57.7 °F -52.6 °F 60% 30.67 in 1.2 mi East 3.5 mph - N/A   Haze
8:21 AM -43.6 °F -57.7 °F -52.6 °F 60% 30.67 in 1.0 mi East 3.5 mph - N/A   Haze
8:44 AM -43.6 °F -57.7 °F -52.6 °F 60% 30.66 in 1.5 mi ESE 3.5 mph - N/A   Haze
8:48 AM -43.6 °F - -52.6 °F 60% 30.66 in 2.5 mi ESE 2.3 mph - N/A   Haze
8:49 AM -43.6 °F -57.7 °F -52.6 °F 60% 30.66 in 3.0 mi ESE 3.5 mph - N/A   Haze
8:51 AM -43.6 °F -57.7 °F -52.6 °F 60% 30.66 in 4.0 mi ESE 3.5 mph - N/A   Haze
9:00 AM -43.6 °F - -52.6 °F 60% 30.66 in 4.0 mi Variable 2.3 mph - N/A   Haze
9:14 AM -43.6 °F - -50.8 °F 67% 30.66 in 6.0 mi ESE 2.3 mph - N/A   Haze
10:00 AM -41.8 °F - -50.8 °F 60% 30.67 in 9.0 mi ESE 2.3 mph - N/A   Overcast
11:00 AM -40.0 °F - -47.2 °F 67% 30.68 in 9.0 mi Calm Calm - N/A   Clear
11:09 AM -38.2 °F - -47.2 °F 61% 30.67 in 9.0 mi Calm Calm - N/A   Mostly Cloudy
12:00 PM -37 °F - -45 °F 44% 30.66 in 10 mi East 2.3 mph - -  
12:00 PM -36.4 °F - -45.4 °F 61% 30.66 in 9.0 mi East 2.3 mph - N/A   Mostly Cloudy
12:08 PM -36.4 °F - -45.4 °F 61% 30.66 in 9.0 mi Calm Calm - N/A   Scattered Clouds
1:00 PM -34.6 °F - -41.8 °F 68% 30.66 in 9.0 mi Calm Calm - N/A   Clear
1:46 PM -32.8 °F - -41.8 °F 62% 30.66 in 4.0 mi Calm Calm - N/A   Haze
1:48 PM -32.8 °F - -40.0 °F 68% 30.66 in 2.5 mi Calm Calm - N/A   Haze
1:49 PM -32.8 °F - -40.0 °F 68% 30.66 in 2.2 mi Calm Calm - N/A   Haze
1:52 PM -32.8 °F - -40.0 °F 68% 30.66 in 1.2 mi Calm Calm - N/A   Haze
2:00 PM -32.8 °F - -40.0 °F 68% 30.66 in 1.2 mi Calm Calm - N/A   Haze
2:04 PM -32.8 °F - -40.0 °F 68% 30.66 in 1.0 mi Variable 2.3 mph - N/A   Haze
3:00 PM -32.8 °F -45.3 °F -40.0 °F 68% 30.66 in 0.8 mi East 3.5 mph - N/A   Haze
3:05 PM -32.8 °F -45.3 °F -41.8 °F 62% 30.66 in 1.5 mi East 3.5 mph - N/A   Haze
3:07 PM -32.8 °F - -41.8 °F 62% 30.66 in 2.5 mi East 2.3 mph - N/A   Haze
3:08 PM -32.8 °F -45.3 °F -41.8 °F 62% 30.66 in 3.0 mi East 3.5 mph - N/A   Haze
3:10 PM -32.8 °F -45.3 °F -41.8 °F 62% 30.66 in 6.0 mi East 3.5 mph - N/A   Haze
3:13 PM -32.8 °F - -41.8 °F 62% 30.65 in 9.0 mi Variable 2.3 mph - N/A   Scattered Clouds
3:38 PM -32.8 °F - -41.8 °F 62% 30.65 in 6.0 mi East 2.3 mph - N/A Snow Light Snow
3:41 PM -34.6 °F - -41.8 °F 68% 30.65 in 5.0 mi ESE 2.3 mph - N/A Snow Light Snow
3:43 PM -34.6 °F -47.4 °F -41.8 °F 68% 30.65 in 6.0 mi ESE 3.5 mph - N/A Snow Light Snow
3:48 PM -34.6 °F -47.4 °F -41.8 °F 68% 30.65 in 7.0 mi East 3.5 mph - N/A   Clear
4:00 PM -34.6 °F - -41.8 °F 68% 30.66 in 9.0 mi SE 2.3 mph - N/A   Clear
5:00 PM -36.4 °F -49.4 °F -45.4 °F 61% 30.66 in 9.0 mi SE 3.5 mph - N/A   Clear
5:08 PM -38.2 °F -51.5 °F -45.4 °F 67% 30.67 in 5.0 mi SE 3.5 mph - N/A   Haze
5:18 PM -36.4 °F -49.4 °F -45.4 °F 61% 30.66 in 7.0 mi SE 3.5 mph - N/A   Clear
5:37 PM -36.4 °F -52.4 °F -45.4 °F 61% 30.66 in 5.0 mi East 4.6 mph - N/A   Haze
5:44 PM -36.4 °F -52.4 °F -45.4 °F 61% 30.66 in 2.5 mi ESE 4.6 mph - N/A   Haze
5:47 PM -36.4 °F -52.4 °F -45.4 °F 61% 30.66 in 4.0 mi ESE 4.6 mph - N/A   Haze
5:48 PM -36.4 °F -52.4 °F -45.4 °F 61% 30.66 in 6.0 mi ESE 4.6 mph - N/A   Haze
6:00 PM -38 °F - -46 °F 43% 30.66 in 9 mi East 4.6 mph - -  
6:00 PM -38.2 °F -54.5 °F -47.2 °F 61% 30.66 in 9.0 mi East 4.6 mph - N/A   Clear
7:00 PM -40.0 °F -53.5 °F -49.0 °F 60% 30.65 in 9.0 mi ESE 3.5 mph - N/A   Clear
8:00 PM -40.0 °F -53.5 °F -49.0 °F 60% 30.65 in 9.0 mi SE 3.5 mph - N/A   Clear
9:00 PM -41.8 °F - -50.8 °F 60% 30.64 in 9.0 mi Variable 2.3 mph - N/A   Clear
9:38 PM -41.8 °F - -50.8 °F 60% 30.64 in 5.0 mi ESE 2.3 mph - N/A   Haze
9:52 PM -43.6 °F - -52.6 °F 60% 30.64 in 6.0 mi SE 2.3 mph - N/A   Haze
10:00 PM -43.6 °F - -52.6 °F 60% 30.64 in 8.0 mi SE 2.3 mph - N/A   Clear
10:04 PM -43.6 °F - -52.6 °F 60% 30.64 in 5.0 mi Variable 2.3 mph - N/A   Haze
10:22 PM -45.4 °F - -54.4 °F 60% 30.64 in 2.5 mi Calm Calm - N/A   Haze
10:39 PM -43.6 °F - -52.6 °F 60% 30.65 in 3.0 mi ESE 2.3 mph - N/A   Haze
10:48 PM -45.4 °F -59.7 °F -54.4 °F 60% 30.64 in 6.0 mi SE 3.5 mph - N/A   Haze
11:00 PM -45.4 °F -59.7 °F -54.4 °F 60% 30.64 in 9.0 mi SSE 3.5 mph - N/A   Clear